ONEWEB-0392 (50472 NORAD) Tracking and Keplerian Element Data

This shows tracking and keplerian element data for the satellite.

Feedback or suggestion? Click here.




ElementValue
Catalog50472
NameONEWEB-0392
Epoch Orbit130
Epoch Day140.58334491
Epoch Year2022
RAAN305.3713
Inclination87.3021
Eccentricity0.0005795
Argument of Perigee99.2991
Mean Anonmoly118.1816
Mean Motion14.65666654
Decay Rate-0.01170304
L11 50472U 21132D 22140.58334491 -.01170304 00000+0 -23289+0 0 9993
L22 50472 87.3021 305.3713 0005795 99.2991 118.1816 14.65666654 1307

Live tracking and technical data element details for ONEWEB-0392 (NORAD 50472). ONEWEB-0392 can be tracked NOW for your location showing map with azimuth and elevation plus other details from your city location.

Track the satellite on the map from your city or location and see movement details for azimuth, elevation, latitude, longitude, range, height, and movement on the map or in text.







IsCatalogInMostPopularTable: catalog: 50472, numindb: 22
Update: records affected: 1



GetName: 50472 ONEWEB-0392

Hit Count: updated at: Mon, 23 May 2022 21:22:29 GMT